Weather Roundup
Issued by NWS Chicago, IL

Home | Current Version | Previous Version | Graphics & Text | Print | Product List | Glossary On
Versions: 1 2 3 4 5 6 7 8 9 10 11 12 13 14 15 16 17 18 19 20 21 22 23 24 25 26 27 28 29 30 31 32 33 34 35 36 37 38 39 40 41 42 43 44 45 46 47 48 49 50
782
NZUS59 KLOT 281109
HRRLOT

CHICAGO AREA WEATHER ROUNDUP
NATIONAL WEATHER SERVICE CHICAGO/ROMEOVILLE IL
600 AM CDT SAT MAY 28 2016

NOTE: "FAIR" INDICATES FEW OR NO CLOUDS BELOW 12,000 FEET WITH NO
SIGNIFICANT WEATHER AND/OR OBSTRUCTIONS TO VISIBILITY.

* THESE STATIONS ARE NOT UNDER NWS QUALITY CONTROL. THEY ALSO MAY NOT
  REPORT WEATHER SUCH AS PRECIPITATION OR FOG.

ILZ005-006-012>014-019>023-281200-
NORTHEAST ILLINOIS

CITY           SKY/WX    TMP DP  RH WIND       PRES   REMARKS
OHARE          CLOUDY    70  64  81 S17       29.85S
MIDWAY         CLOUDY    72  63  73 S15G24    29.86S
AURORA         CLOUDY    70  65  84 S15       29.85S
LANSING*       PTCLDY    71  63  75 S17G24    29.89S
JOLIET*        CLOUDY    70  67  89 S9        29.87S
WAUKEGAN       CLOUDY    64  62  93 SE7       29.85S
DUPAGE AIRPORT CLOUDY    70  63  78 S17       29.85R
WHEELING       CLOUDY    70  64  81 S14       29.86S
KANKAKEE*      CLOUDY    70  64  82 S12G17    29.91R
MORRIS*        CLOUDY    69  65  88 S12       29.85R
LEWIS AIRPORT* CLOUDY    69  64  84 S15       29.87S
$$

WIZ051-052-058>065-066-070>072-281200-
SOUTHEAST WISCONSIN

CITY           SKY/WX    TMP DP  RH WIND       PRES   REMARKS
MILWAUKEE      CLOUDY    67  63  87 S13       29.84S
KENOSHA*       CLOUDY    68  63  84 S8        29.85S
RACINE*        CLOUDY    64  61  90 S12       29.87R
BURLINGTON     CLOUDY    66  64  93 S8        29.83F FOG
WAUKESHA       MOCLDY    66  64  94 S12       29.85S
WEST BEND      CLOUDY    66  63  88 SE6       29.83F
$$

INZ001>003-010>013-019-020-281200-
NORTHWEST INDIANA

CITY           SKY/WX    TMP DP  RH WIND       PRES   REMARKS
GARY*          MOCLDY    73  70  88 S10G23    29.89S
MICHIGAN CITY* NOT AVBL
RENSSELAER*    NOT AVBL
VALPARAISO     CLOUDY    72  63  73 S13G18    29.93R
$$

LMZ740>746-281200-
SOUTHERN LAKE MICHIGAN

STATION/POSITION TIME  SKY/WX   TEMP WIND        PRES    VSBY
                                AIR  DIR/SP/G
                 (UTC)          (F)  (DEG/KT/KT) (MB)    (MI)
HARRISON CRIB    1000            66  170/ 15/ 18   N/A
BURNHAM HARBOR   1100            72  200/ 12/ 17   N/A
CALUMET HARBOR   1000            73  170/ 11/ 19 1011.0R
BURNS HARBOR     1003            71  170/  6/ 20 1012.5S
MICHIGAN CITY    1000            73  150/ 10/ 13   N/A
$$

ABBREVIATIONS USED IN REMARKS
   TC - TEMPERATURE IN CELSIUS
  WCI - WIND CHILL INDEX
   HX - HEAT INDEX
  VSB - VISIBILITY
$$




USA.gov is the U.S. government's official web portal to all federal, state and local government web resources and services.